User: anonymous   Login
Location: Unspecified
(0.0000°N, 0.0000°E)
Time: 01:58:45
(UTC+00:00)
Language:

Optus B3 - Orbit

View from above orbital plane
View from above orbital plane
View from above satellite
View from above satellite

Ground track
Ground track

The orbit data is extracted from the following two-line orbital elements,

1 23227U 94055A   15084.38752369 -.00000104  00000-0  00000+0 0  9995
2 23227 006.0467 056.7159 0004334 279.3372 150.1447 01.00271850 75313
Epoch (UTC): 25 March 2015 09:18:02
Eccentricity: 0.0004334
inclination: 6.0467°
perigee height: 35768 km
apogee height: 35804 km
right ascension of ascending node: 56.7159°
argument of perigee: 279.3372°
revolutions per day: 1.00271850
mean anomaly at epoch: 150.1447°
orbit number at epoch: 7531

The dashed part of the orbit path shows where the satellite is in the earth's shadow,  

DLR